Regional Weather Roundup
Issued by NWS New Orleans/Baton Rouge, LA

Home | Current Version | Previous Version | Text Only | Print | Product List | Glossary On
Versions: 1 2 3 4 5 6 7 8 9 10 11 12 13 14 15 16 17 18 19 20 21 22 23 24 25 26 27 28 29 30 31 32 33 34 35 36 37 38 39 40 41 42 43 44 45 46 47 48 49 50
734
ASUS44 KLIX 062211
RWRLIX
NEW ORLEANS REGIONAL WEATHER ROUNDUP
NATIONAL WEATHER SERVICE NEW ORLEANS LA
500 PM CDT FRI MAY 06 2016

NOTE: "FAIR" INDICATES FEW OR NO CLOUDS BELOW 12,000 FEET WITH NO
      SIGNIFICANT WEATHER AND/OR OBSTRUCTIONS TO VISIBILITY.
      SKY/WX - SKY CONDITION AND SIGNIFICANT WEATHER.
      TMP - AIR TEMPERATURE.     DP    - DEWPOINT TEMPERATURE.
      RH  - RELATIVE HUMIDITY.   PRES  - PRESSURE.
      HI  - HEAT INDEX.          WCI   - WIND CHILL INDEX.

*  THESE STATIONS ARE NOT NWS OR FAA STATIONS AND ARE NOT UNDER
   NWS QUALITY CONTROL.

LAZ038-040-048-061>063-065>067-069-062300-
SOUTHEAST LOUISIANA

CITY           SKY/WX    TMP DP  RH WIND       PRES   REMARKS
N.O. AUDUBON     N/A     78  50  37 MISG        N/A
N.O. INTL ARPT MOSUNNY   77  49  37 NE9       29.99F
N.O. LAKEFRONT SUNNY     71  52  50 W5        30.00F
N.O. DOWNTOWN*   N/A     76  46  34 N9        30.00F
RESERVE*         N/A     79  42  27 N5        29.99F
SLIDELL        SUNNY     77  47  34 N8G17     29.98F
BATON ROUGE    SUNNY     77  41  27 NW10G17   30.00F
BOOTHVILLE     SUNNY     72  50  45 N5        30.01F
BELLE CHASSE   MOSUNNY   76  46  34 VRB6      29.99F
BOGALUSA*        N/A     77  43  30 N7        30.01F
GALLIANO*      CLEAR     77  46  33 N8        30.00S
NEW ROADS*       N/A     76  46  34 N10G17    30.01F
GONZALES*        N/A     77  44  30 NW5       29.98F
HAMMOND*       SUNNY     79  39  24 N7        29.99F
HOUMA*         SUNNY    N/A N/A N/A NW12      29.99F
PORT FOURCHON* CLEAR     75  46  35 NE12      30.00F

$$

MSZ070-080>082-062300-
SOUTHERN MISSISSIPPI

CITY           SKY/WX    TMP DP  RH WIND       PRES   REMARKS
MCCOMB         SUNNY     76  45  33 N13       30.01F
GULFPORT       SUNNY     76  45  33 N10       29.98F
BILOXI         SUNNY     76  47  35 VRB7      29.97F
PASCAGOULA     MOSUNNY   76  48  37 NW7       29.98S
STENNIS ARPT*  SUNNY     75  39  27 NW9       29.99F

$$

COASTAL OBSERVATIONS
LAKE AND NEARSHORE STATIONS

STATION/POSITION TIME  TEMP    WIND        PRES    WAVE
                       AIR SEA DIR/SP/G            HT/PER
                 (UTC) (F)     (DEG/KT/KT) (MB)    (FT/S)
PASCAGOULA       2100   75     320/ 10/ 15 1014.9
WAVELAND YACHT   2100   72 72  360/  8/ 12 1015.6
GRAND ISLE       2100   73 76  350/  8/ 11 1016.1
SOUTHWEST PASS   2100          360/ 13/ 15   N/A
NEW CANAL        2100   72 74  240/  2/  3 1015.6
SHELL BEACH      2100   71 74  300/  9/ 12 1016.1

OFFSHORE STATIONS

STATION/POSITION TIME  TEMP    WIND        PRES    WAVE
                       AIR SEA DIR/SP/G            HT/PER
                 (UTC) (F)     (DEG/KT/KT) (MB)    (FT/S)
64 S DAUPHIN ISL 2100   66 74  330/ 12/ 17 1016.1

$$





USA.gov is the U.S. government's official web portal to all federal, state and local government web resources and services.